Vorticity
8 3 3 9 2 9 8 20 6 7 8 13 10 10 10 9 8 8 6 13 9 1 7 2 -5 10 2 5 6 8 7 5 6 8 8 8 7 7 6 5 5 4 4
12 7 6 2 9 13 -31 2 20 6 14 13 15 12 13 14 15 10 11 14 18 5 3 3 0 4 -2 2 4 4 5 9 6 5 6 6 6 6 6 6 5 5 5
11 11 13 16 12 17 24 35 -21 -23 -46 1 -21 -7 1 3 7 7 14 10 18 5 2 1 7 3 -2 5 2 6 5 2 6 7 5 6 6 6 6 5 5 5 5
13 11 14 11 11 14 5 23 21 12 54 6 17 31 7 0 5 2 9 16 8 6 2 -0 3 11 2 14 -2 7 12 5 5 7 7 6 6 6 6 6 6 6 6
11 13 12 12 16 18 4 11 -4 26 -34 33 13 -1 -8 -4 3 5 6 19 13 12 2 -1 -5 12 2 -3 -9 10 13 -3 14 12 10 7 6 6 6 5 5 5 5
5 9 15 12 11 15 19 1 31 14 -2 10 -3 5 4 -1 8 2 9 -1 13 5 17 7 0 25 -9 -4 8 5 2 22 13 3 7 9 8 7 7 7 7 7 6
10 5 8 13 11 12 11 30 -24 22 10 5 -12 10 21 4 7 0 9 12 1 10 -4 5 24 -2 -5 -4 12 4 -5 -1 18 15 12 9 8 9 8 8 8 7 7
5 8 7 8 12 10 12 13 24 11 5 5 24 14 11 4 20 -0 1 12 -0 -7 7 -14 13 10 -1 20 -19 8 29 -1 4 1 8 3 8 9 9 8 8 8 8
9 3 9 7 9 12 10 15 8 20 -9 -11 -14 8 6 17 18 15 -21 6 20 -2 -19 7 14 5 13 10 7 -2 1 2 -4 7 10 5 14 13 10 10 10 9 9
10 11 4 10 8 9 10 10 13 10 13 18 12 -14 24 0 41 -29 38 -22 21 8 41 12 13 35 10 9 11 -8 -8 -1 -0 3 0 15 4 14 11 2 2 -0 2
19 13 9 8 9 9 10 2 7 18 14 10 11 -6 22 22 3 -17 -5 31 37 7 -1 18 -7 22 10 -17 12 -1 1 -8 -2 12 12 8 9 3 8 12 16 18 16
7 17 13 11 10 9 8 9 0 15 14 13 13 9 8 19 -9 11 -7 -2 30 -23 -1 21 15 15 18 11 9 8 -1 -14 15 2 10 3 8 4 5 9 2 -2 -1
14 9 14 11 11 11 10 8 8 7 13 13 12 1 -6 15 17 17 -0 7 11 -2 29 12 10 3 -1 4 -18 19 -3 -1 14 -16 17 -0 9 2 5 7 11 13 13
15 15 12 11 10 11 11 11 11 14 22 14 13 13 -2 8 16 10 9 10 -2 -12 4 -5 3 13 18 7 30 -18 8 -4 18 27 11 -1 5 11 5 4 8 5 9
10 13 16 9 11 10 10 11 11 11 10 8 11 22 -2 7 9 6 5 13 -1 4 12 10 24 11 13 8 8 24 -1 23 -29 19 10 2 4 6 9 6 7 8 8
12 10 10 21 7 12 10 13 13 13 10 12 13 4 9 -3 31 3 13 9 32 18 -7 12 27 -3 3 -16 8 16 26 20 14 14 11 5 3 11 9 6 8 6 7
6 13 10 13 17 6 19 15 16 18 11 13 16 4 9 19 -0 30 12 -4 11 -4 12 11 2 15 30 1 35 4 3 13 3 3 6 3 12 1 13 10 3 9 6
8 9 10 17 15 12 21 14 21 24 16 10 23 11 -4 12 18 3 12 15 -5 10 -5 17 -2 1 -19 -0 3 1 4 8 10 4 3 2 10 7 12 1 9 5 7
11 7 11 10 23 22 11 32 1 12 35 12 13 11 9 -7 4 24 6 19 19 -5 8 21 9 20 23 16 24 10 22 12 9 4 11 6 13 13 6 8 4 10 11
19 10 8 3 28 10 28 -1 14 14 8 11 -4 14 14 6 16 0 15 23 0 11 4 17 -4 30 -9 25 -15 16 -2 5 6 6 20 1 17 8 9 3 11 9 14
22 10 5 11 18 29 -8 12 3 -2 10 26 -9 -5 44 26 16 17 11 4 -9 4 4 -5 16 6 15 -3 6 13 -4 17 6 7 -0 15 11 8 5 7 15 10 11
20 13 6 9 3 27 4 9 10 12 38 22 3 11 10 34 22 -1 17 25 8 20 13 -5 -7 12 18 20 7 8 20 7 11 3 12 13 8 4 9 17 12 7 6
15 13 7 6 12 29 6 18 28 19 20 33 7 3 18 11 16 29 20 10 7 -5 17 -9 17 25 6 13 9 12 9 4 5 16 11 5 7 16 13 9 5 7 10
13 15 8 9 21 24 20 -5 3 9 4 20 31 10 11 7 4 9 2 9 27 14 14 16 5 10 18 10 13 16 16 16 14 9 2 14 11 13 9 4 10 10 9
14 15 8 16 23 30 17 -1 19 23 9 -1 9 5 12 3 14 2 21 18 -4 27 24 12 27 19 9 7 12 7 14 8 5 10 16 15 15 5 5 11 9 10 9
16 10 9 24 24 27 21 16 21 -4 6 6 15 11 -10 21 16 6 -1 33 14 6 -2 5 0 2 10 10 13 7 9 12 18 19 15 8 2 10 10 10 11 8 9
Height
3120 3121 3121 3121 3120 3120 3123 3122 3126 3129 3130 3130 3129 3131 3133 3134 3135 3136 3136 3138 3140 3142 3142 3141 3140 3142 3143 3144 3144 3145 3145 3146 3147 3147 3148 3149 3150 3150 3151 3151 3152 3152 3152
3113 3114 3114 3115 3112 3099 3109 3115 3119 3121 3126 3127 3128 3128 3130 3130 3131 3131 3132 3134 3136 3139 3139 3138 3139 3140 3140 3141 3142 3142 3143 3143 3144 3144 3145 3146 3147 3148 3148 3148 3148 3148 3148
3106 3107 3107 3108 3108 3103 3107 3107 3114 3118 3118 3125 3128 3128 3128 3126 3126 3128 3130 3130 3133 3136 3136 3136 3136 3137 3138 3138 3139 3139 3140 3140 3141 3142 3142 3142 3143 3144 3144 3145 3145 3145 3145
3101 3101 3100 3101 3101 3102 3104 3105 3108 3112 3107 3113 3119 3121 3122 3121 3122 3123 3125 3127 3129 3132 3133 3134 3133 3134 3135 3134 3136 3137 3137 3138 3138 3138 3139 3139 3139 3140 3140 3140 3140 3140 3139
3096 3095 3095 3094 3094 3095 3098 3102 3103 3103 3104 3106 3111 3114 3116 3115 3117 3119 3120 3122 3125 3127 3128 3129 3130 3130 3131 3131 3132 3133 3134 3134 3134 3134 3135 3135 3136 3136 3136 3136 3136 3135 3134
3090 3089 3089 3087 3088 3089 3090 3094 3095 3096 3098 3101 3105 3107 3108 3109 3112 3115 3118 3119 3121 3122 3124 3125 3126 3126 3127 3127 3128 3130 3129 3130 3129 3130 3130 3131 3131 3132 3132 3132 3131 3131 3130
3084 3084 3084 3083 3081 3082 3084 3086 3086 3091 3090 3094 3094 3098 3101 3102 3105 3108 3110 3112 3114 3117 3117 3120 3120 3122 3122 3123 3124 3125 3126 3126 3126 3126 3126 3126 3126 3126 3126 3126 3126 3125 3124
3078 3077 3078 3077 3076 3075 3076 3078 3081 3083 3086 3090 3089 3092 3092 3094 3094 3099 3103 3105 3107 3110 3111 3112 3114 3116 3118 3119 3119 3120 3120 3122 3122 3122 3122 3122 3122 3121 3120 3120 3120 3119 3119
3071 3070 3070 3071 3070 3069 3070 3072 3073 3076 3077 3081 3084 3086 3085 3085 3090 3090 3092 3099 3100 3102 3103 3106 3108 3109 3111 3114 3114 3115 3116 3117 3118 3119 3118 3117 3116 3115 3114 3114 3112 3112 3111
3062 3061 3062 3062 3063 3063 3063 3064 3066 3066 3069 3072 3074 3076 3077 3080 3082 3084 3082 3089 3093 3093 3096 3099 3102 3102 3105 3107 3108 3109 3110 3111 3112 3113 3113 3112 3111 3110 3109 3108 3106 3105 3104
3053 3052 3052 3053 3054 3055 3056 3056 3057 3059 3059 3062 3064 3066 3069 3072 3071 3077 3080 3081 3083 3086 3090 3094 3095 3097 3099 3101 3102 3104 3106 3106 3107 3107 3106 3106 3106 3103 3103 3102 3100 3099 3098
3046 3043 3043 3044 3045 3047 3048 3049 3050 3050 3051 3053 3056 3059 3062 3065 3067 3071 3073 3074 3078 3081 3084 3087 3089 3091 3092 3093 3096 3098 3100 3101 3100 3101 3100 3099 3100 3099 3098 3096 3095 3093 3092
3038 3037 3034 3035 3036 3037 3039 3040 3042 3042 3043 3045 3048 3050 3053 3057 3060 3064 3066 3068 3071 3073 3077 3079 3082 3084 3086 3086 3087 3090 3092 3092 3094 3095 3094 3093 3094 3093 3091 3091 3089 3087 3085
3029 3029 3028 3026 3027 3028 3029 3031 3032 3033 3034 3036 3039 3042 3045 3048 3051 3054 3057 3059 3063 3066 3069 3071 3075 3076 3079 3081 3082 3085 3086 3087 3088 3089 3088 3086 3087 3086 3086 3085 3082 3080 3077
3021 3020 3019 3018 3018 3019 3020 3021 3022 3024 3026 3028 3031 3033 3036 3040 3044 3047 3050 3052 3056 3058 3061 3065 3068 3070 3071 3074 3077 3079 3078 3081 3081 3082 3081 3080 3080 3079 3079 3077 3075 3073 3070
3014 3012 3011 3009 3009 3009 3010 3011 3012 3014 3016 3019 3022 3026 3029 3033 3036 3039 3041 3046 3048 3052 3055 3057 3059 3064 3065 3068 3071 3073 3073 3075 3075 3075 3075 3074 3073 3073 3072 3071 3068 3065 3063
3005 3003 3001 3000 2999 3000 3000 3000 3001 3004 3007 3010 3013 3018 3022 3025 3029 3031 3035 3038 3040 3044 3047 3051 3053 3055 3058 3061 3062 3064 3066 3068 3067 3068 3068 3068 3067 3066 3064 3063 3060 3058 3055
2996 2994 2993 2991 2990 2990 2991 2991 2992 2996 2999 3002 3005 3010 3014 3018 3020 3024 3027 3030 3035 3037 3040 3044 3046 3049 3051 3054 3055 3058 3058 3059 3060 3061 3062 3061 3060 3058 3056 3055 3053 3050 3046
2986 2986 2984 2982 2981 2982 2983 2984 2985 2988 2990 2995 2999 3004 3007 3009 3013 3016 3019 3023 3027 3030 3033 3036 3039 3042 3043 3047 3048 3050 3051 3052 3053 3054 3054 3054 3052 3050 3049 3047 3045 3042 3038
2975 2975 2975 2973 2973 2973 2974 2975 2977 2980 2982 2986 2991 2995 2999 3003 3006 3009 3012 3015 3020 3024 3026 3029 3031 3034 3037 3039 3041 3042 3044 3045 3046 3046 3046 3046 3044 3043 3041 3039 3037 3034 3031
2966 2966 2965 2965 2963 2963 2965 2968 2970 2973 2975 2978 2982 2986 2991 2995 2998 3002 3006 3009 3013 3016 3020 3022 3024 3026 3029 3032 3034 3035 3036 3037 3037 3038 3038 3037 3036 3035 3033 3031 3029 3026 3024
2957 2956 2956 2955 2954 2953 2956 2958 2962 2965 2967 2971 2975 2980 2984 2988 2992 2996 2999 3002 3007 3010 3013 3015 3018 3020 3022 3025 3026 3028 3029 3031 3031 3031 3030 3029 3029 3027 3026 3024 3021 3019 3017
2948 2947 2947 2946 2944 2944 2948 2952 2955 2958 2961 2963 2967 2973 2977 2981 2985 2988 2992 2996 2999 3003 3007 3009 3011 3013 3016 3019 3020 3021 3022 3023 3024 3024 3023 3023 3021 3019 3020 3017 3015 3012 3009
2939 2938 2938 2937 2935 2937 2940 2945 2949 2952 2955 2959 2962 2966 2971 2976 2980 2984 2988 2991 2995 2998 3000 3003 3006 3008 3010 3012 3014 3015 3016 3016 3017 3017 3016 3015 3014 3014 3013 3011 3008 3005 3002
2931 2931 2930 2929 2928 2929 2934 2938 2943 2947 2950 2955 2959 2963 2967 2971 2975 2979 2983 2986 2989 2991 2994 2998 3000 3003 3005 3007 3008 3009 3010 3010 3010 3010 3010 3009 3009 3009 3007 3005 3002 2998 2995
2924 2924 2923 2921 2921 2923 2928 2933 2937 2942 2946 2949 2954 2959 2963 2967 2970 2975 2978 2981 2984 2988 2990 2993 2996 2998 3000 3001 3002 3003 3004 3004 3005 3005 3005 3005 3004 3003 3001 2998 2994 2992 2988